Theta_e
334 335 336 335 335 337 336 334 333 333 330 329 326 326 326 327 330 330 329 328 326 325 324 322 322 322 321 322 325 324 321 319 321 318 317 320 323 320 322 323 319 318 320
330 331 332 333 333 334 333 332 331 332 329 327 327 327 326 325 325 329 328 328 326 325 321 323 320 321 319 320 320 319 316 316 318 314 313 308 310 317 320 319 318 318 319
327 328 328 329 327 330 331 330 331 331 331 328 325 325 323 322 320 320 321 323 326 324 323 320 320 319 320 317 317 317 316 313 315 318 314 306 305 310 316 318 317 316 316
325 325 325 325 326 326 329 330 331 330 328 329 324 322 318 316 319 319 322 324 324 322 321 321 320 322 320 319 317 316 317 316 313 315 319 317 314 307 305 312 315 317 316
323 321 321 323 324 326 326 328 331 329 328 328 325 319 319 318 320 320 322 320 319 319 320 320 321 320 320 319 319 318 318 318 316 315 314 315 314 313 309 305 308 313 315
321 322 323 323 324 325 324 327 328 326 326 326 324 322 319 320 318 318 317 317 318 317 320 320 320 321 320 319 318 319 318 317 317 317 315 313 311 310 309 307 308 308 311
320 320 321 320 324 323 325 324 325 323 325 323 322 320 319 319 317 317 316 317 316 317 319 320 320 319 320 319 319 318 318 317 316 315 314 315 314 314 312 309 307 306 310
321 320 321 321 321 323 325 323 324 322 323 322 320 320 320 318 318 318 318 317 317 318 321 320 321 319 318 318 317 317 316 316 316 315 315 315 314 317 314 311 309 304 307
320 319 320 322 324 324 325 323 324 323 321 322 321 320 321 320 319 319 321 319 320 320 320 319 318 318 317 317 317 315 315 316 316 316 316 315 315 316 315 314 313 309 302
319 319 320 324 323 323 324 323 322 320 320 319 320 319 320 321 320 321 320 320 321 320 319 317 316 315 315 316 316 315 316 314 315 315 315 316 316 315 314 314 314 313 308
319 318 320 322 322 321 319 321 319 317 317 319 320 320 319 320 321 320 320 320 320 320 316 316 314 314 315 316 315 315 314 313 313 314 314 312 314 312 314 314 314 313 311
320 319 319 321 321 320 319 319 320 316 317 319 319 319 321 320 321 321 320 320 319 319 316 317 315 314 313 314 313 312 313 311 311 310 311 311 313 311 313 314 313 312 312
319 319 319 319 319 319 320 319 318 316 317 319 316 318 320 319 320 322 322 321 319 318 316 317 314 312 311 311 313 312 312 310 310 309 310 310 310 310 312 312 310 310 311
318 319 319 318 318 320 319 319 318 317 317 317 317 318 320 320 320 321 321 320 319 316 317 316 314 313 311 310 312 312 311 310 309 309 310 310 308 308 310 310 310 310 309
317 318 319 319 318 319 320 320 319 320 319 317 317 320 321 321 320 321 321 320 318 317 317 315 314 314 311 308 309 313 312 310 308 308 308 310 310 310 309 309 309 309 307
317 318 320 319 318 319 318 320 319 320 321 318 316 318 318 319 320 320 321 320 320 319 317 316 314 313 310 304 306 310 312 310 309 308 307 308 309 310 309 308 308 307 306
317 318 320 320 320 320 321 319 319 321 321 317 316 317 318 318 318 319 320 320 320 320 318 317 314 313 311 302 302 306 314 311 310 309 307 305 307 307 309 308 308 307 307
318 319 321 322 322 321 321 322 318 320 319 317 315 316 317 316 318 318 319 321 321 320 319 318 317 314 310 302 301 303 313 312 311 311 310 308 307 305 305 306 306 304 302
320 321 322 322 324 321 322 320 319 319 316 314 315 315 316 318 318 318 319 320 321 322 319 318 316 316 314 300 301 304 315 314 312 312 309 310 309 301 301 305 304 302 301
322 322 323 323 324 323 323 321 319 317 314 315 316 317 317 319 319 317 321 323 323 319 319 318 318 311 316 299 301 302 312 313 313 314 309 304 305 300 299 307 308 305 302
324 323 323 324 324 323 323 321 319 317 317 317 317 318 320 321 321 320 318 325 324 322 321 319 320 316 311 310 301 300 312 309 312 311 311 312 302 301 302 299 311 308 307
321 322 323 325 326 323 323 321 319 320 319 319 318 320 322 318 317 317 321 321 320 321 321 317 318 317 316 302 301 300 300 304 313 312 312 312 301 302 302 304 302 302 302
324 322 324 326 326 325 323 320 320 319 318 320 320 321 320 322 321 320 319 316 315 314 318 315 315 315 316 314 303 302 303 304 310 314 309 302 300 301 305 305 301 301 311
321 323 321 324 326 326 323 323 321 320 319 320 322 323 322 321 323 322 319 316 317 316 313 315 317 316 320 319 318 314 314 307 310 308 310 308 305 303 306 306 310 313 313
322 323 324 326 323 326 324 324 322 322 321 323 322 322 322 323 321 323 320 321 325 317 316 314 314 314 315 315 302 301 309 308 303 300 312 315 315 312 314 315 314 312 311
323 324 325 326 324 323 323 324 325 323 324 323 321 320 320 319 318 319 321 307 305 303 300 297 300 311 300 296 296 294 293 294 294 307 311 313 314 313 314 312 311 310 309
Wind_Speed
16 12 15 14 13 11 12 13 13 13 12 10 11 10 11 9 6 9 11 9 9 9 7 8 9 10 10 10 8 6 8 8 8 5 5 4 4 5 5 3 2 1 4
14 13 12 11 10 10 12 12 12 12 12 11 10 10 10 9 9 5 7 7 7 6 8 8 9 10 9 10 10 10 6 6 7 5 5 3 5 1 1 3 2 3 3
13 11 10 10 12 12 12 11 11 11 11 12 9 9 9 7 8 9 8 8 5 7 7 7 5 7 7 6 7 7 8 7 6 5 2 3 2 6 2 3 3 1 3
11 10 11 11 11 10 11 11 10 10 10 11 10 12 9 8 8 8 7 7 6 10 9 7 4 5 4 4 4 6 6 5 7 7 3 4 3 3 5 4 2 3 3
10 12 13 12 12 11 10 9 9 11 12 10 10 9 10 8 6 8 10 12 8 7 8 10 9 7 5 6 6 6 6 3 4 4 5 4 4 3 2 3 4 3 4
12 13 13 12 12 12 10 8 12 12 9 9 9 11 13 11 9 10 9 10 9 9 12 11 8 7 7 8 7 8 8 7 5 4 4 3 2 3 2 2 4 4 4
13 11 13 12 11 9 8 8 13 10 9 9 13 11 11 11 11 10 8 8 8 7 9 9 9 8 9 10 8 8 6 7 7 7 5 4 4 3 3 2 3 2 3
10 10 14 11 9 9 9 10 10 8 8 9 11 9 10 7 7 8 7 7 7 8 9 9 9 10 10 9 9 6 8 8 6 8 6 4 4 2 2 2 0 3 2
9 11 14 11 9 9 11 10 8 7 8 10 7 7 7 8 7 7 7 6 7 8 10 10 11 10 10 10 10 8 7 8 8 8 7 4 3 2 3 2 2 1 2
11 11 12 10 9 9 9 10 11 10 10 11 7 7 6 6 6 6 8 8 8 10 9 10 9 10 11 10 10 9 9 8 7 8 9 4 2 3 4 3 2 2 2
10 11 12 11 10 11 11 10 10 11 9 8 8 6 6 7 6 5 7 9 8 9 10 9 9 9 10 11 9 9 10 11 10 12 9 8 7 4 3 3 2 2 1
8 11 11 10 10 8 9 10 9 9 8 7 7 7 6 6 7 6 8 8 9 7 8 9 8 8 10 10 11 11 10 10 11 12 11 10 6 7 6 4 4 4 4
8 11 10 9 10 8 7 9 9 9 7 6 8 6 6 6 7 6 6 7 7 9 7 8 8 8 11 11 9 9 10 10 11 11 12 11 11 10 6 5 5 5 3
9 10 8 9 9 8 7 7 8 8 8 7 6 5 5 6 7 7 5 8 7 7 8 10 9 7 9 10 10 10 10 9 9 10 10 11 11 11 9 6 5 3 4
9 9 8 7 8 7 6 7 7 6 7 7 6 4 4 5 7 7 5 6 6 4 7 7 6 7 8 7 9 9 7 7 6 6 8 9 14 17 16 6 8 7 6
9 8 8 8 7 7 7 7 6 4 5 6 5 5 6 5 5 6 4 7 5 4 6 7 5 8 6 11 13 10 7 8 9 9 10 7 11 9 13 17 20 14 6
6 5 7 7 5 6 5 6 4 3 5 7 6 7 5 2 4 6 6 6 5 5 6 6 5 7 7 12 13 12 3 5 7 8 7 7 7 12 9 9 10 12 11
7 6 8 7 5 5 5 5 4 6 5 5 6 7 7 7 6 5 7 6 5 4 4 5 5 6 5 9 13 16 6 5 5 6 5 5 5 7 7 8 7 8 7
7 7 8 7 4 5 4 5 4 6 5 5 6 6 6 6 6 6 6 6 4 3 4 5 6 5 4 9 10 10 2 2 3 4 4 5 6 7 6 4 3 5 5
6 7 7 6 5 4 3 4 5 6 6 5 5 5 4 5 4 4 4 2 4 3 3 4 4 4 3 5 9 10 6 6 2 5 4 6 4 5 4 3 3 3 2
7 6 4 7 3 2 2 3 5 5 4 4 4 4 3 6 3 2 4 3 1 0 1 2 2 4 2 3 5 8 6 6 7 4 6 4 10 9 6 3 5 0 3
7 6 5 7 3 1 3 3 4 3 4 4 5 4 5 4 4 5 6 4 4 3 2 3 3 3 4 3 2 2 1 5 5 5 4 4 10 12 11 6 4 8 6
4 3 4 7 4 3 2 3 2 2 3 3 3 5 1 3 4 5 5 6 2 3 3 2 3 2 5 4 7 7 9 9 3 4 8 10 10 11 8 11 9 7 2
4 4 3 4 5 4 3 2 0 2 4 3 4 3 5 6 4 3 3 4 3 4 6 4 1 4 0 2 3 3 4 6 5 6 7 9 5 9 8 6 6 5 2
4 2 4 2 3 5 3 3 1 1 3 4 5 7 3 3 5 5 3 3 2 1 3 4 4 5 4 2 1 2 4 4 5 8 6 5 5 2 4 4 3 3 3
5 5 3 2 3 3 4 4 3 2 3 4 5 5 4 5 4 4 3 8 6 5 4 4 3 3 1 3 3 3 3 4 4 4 6 6 4 4 4 4 4 4 5
Wind_Direction
84 84 74 67 62 54 52 41 35 27 11 12 14 0 349 3 36 56 47 38 30 19 14 4 351 6 351 341 5 1 344 339 337 352 332 275 250 327 26 51 67 354 355
88 71 67 80 81 75 65 52 36 39 28 1 19 354 351 360 9 37 45 23 32 24 24 18 11 359 344 5 14 12 351 326 352 339 315 316 332 197 64 79 18 345 311
86 94 87 77 63 86 75 60 51 32 38 13 19 3 358 1 13 356 16 339 39 44 51 53 15 350 0 1 360 358 346 326 321 318 310 327 337 340 311 189 203 252 300
113 93 82 61 73 63 79 69 61 45 38 32 28 14 358 7 28 352 356 342 33 38 54 28 14 340 336 353 340 328 319 330 324 334 9 330 257 288 325 344 273 196 260
88 71 55 65 60 50 49 75 71 54 39 35 39 24 7 360 16 352 0 5 43 54 23 18 359 357 343 338 324 311 307 309 306 309 329 329 324 320 295 298 317 336 301
79 78 61 56 56 53 29 61 66 49 28 35 37 38 13 9 29 7 7 356 5 358 19 2 349 352 354 341 346 334 331 327 324 319 319 330 299 309 298 298 297 304 308
62 54 62 35 52 42 43 19 73 46 28 35 57 36 18 6 16 358 2 344 352 353 354 352 355 351 359 357 348 332 341 343 338 334 314 301 286 268 277 268 279 319 301
64 48 68 43 24 16 57 36 68 48 23 53 58 48 25 2 5 349 345 346 351 347 3 350 3 5 355 353 352 343 349 350 336 323 317 298 287 251 262 241 208 311 273
83 58 71 56 21 20 70 38 76 59 39 79 77 49 27 2 349 340 338 358 358 355 6 11 357 10 2 355 355 349 354 344 340 325 315 277 294 278 276 270 233 224 303
68 64 72 67 32 23 65 47 26 45 34 82 46 51 17 354 352 357 357 14 3 16 14 6 13 3 353 356 355 353 352 357 349 346 349 356 28 16 344 316 273 217 227
48 58 71 70 45 32 25 47 26 27 30 88 62 36 7 354 359 11 6 14 16 20 0 16 1 5 355 358 357 4 6 11 6 4 13 28 30 15 340 339 34 339 27
47 60 62 64 57 45 27 49 38 19 27 98 69 55 0 355 5 359 24 15 12 18 10 357 24 356 12 355 5 10 11 23 18 10 18 22 7 6 4 11 29 42 18
60 61 44 53 60 41 48 40 38 14 21 96 56 47 359 3 5 1 35 9 13 11 0 13 31 1 12 3 1 16 15 39 24 17 16 25 19 16 2 38 28 24 50
72 70 47 44 63 42 51 40 52 20 6 0 91 73 23 357 23 20 27 26 22 24 21 1 31 354 26 11 3 13 35 33 32 22 20 28 29 20 13 29 6 355 69
68 72 71 48 48 44 19 51 56 30 349 355 27 113 90 26 19 6 31 32 36 18 37 9 14 13 25 16 356 8 42 43 37 32 31 26 44 45 44 32 17 40 62
67 66 73 63 35 38 11 50 59 1 354 344 35 28 14 46 38 351 19 42 15 25 33 4 29 33 25 340 348 2 45 35 31 40 34 34 25 46 60 58 53 43 52
76 79 89 83 60 42 23 38 47 349 27 347 24 44 354 52 77 28 19 25 12 37 25 13 53 49 20 356 342 344 73 52 41 48 58 42 27 16 24 39 60 57 52
69 84 93 94 66 41 35 47 1 45 27 8 5 44 12 28 19 37 7 20 19 42 20 21 46 55 45 358 344 340 52 50 52 51 65 51 31 26 6 349 37 53 39
95 85 91 97 86 44 17 29 1 39 14 28 6 41 19 9 22 24 8 356 9 22 45 13 56 61 49 358 348 341 331 96 69 91 33 32 29 3 357 323 59 47 49
103 119 118 127 97 63 359 27 17 36 16 12 357 26 31 333 38 10 337 355 357 31 35 31 63 59 98 23 0 0 322 10 14 126 149 71 37 346 4 328 228 150 169
119 120 147 105 108 97 355 35 28 20 18 352 344 19 4 303 100 39 296 309 359 286 99 323 101 127 333 105 20 4 7 354 331 27 23 31 358 350 348 349 235 161 172
136 192 150 133 153 151 17 15 44 349 17 351 359 338 49 339 355 310 282 279 268 285 194 234 217 175 171 227 247 348 349 316 334 22 15 335 334 324 318 325 276 264 250
143 179 146 137 166 175 132 342 47 350 346 358 345 326 97 303 280 286 304 291 308 227 231 261 306 242 191 195 219 260 281 279 288 350 321 282 294 300 295 292 291 296 257
179 178 155 191 171 184 198 210 257 42 314 318 304 284 268 261 256 298 298 316 8 5 338 318 340 333 310 305 215 234 250 272 301 7 311 293 264 266 270 294 280 283 246
174 162 202 168 222 171 202 240 218 198 280 307 288 278 307 246 254 231 249 307 37 358 324 318 337 319 318 94 313 337 336 356 353 321 298 296 320 279 264 267 252 294 297
180 161 209 190 251 254 201 215 194 217 274 289 301 335 297 294 282 269 202 235 235 216 227 244 238 282 159 172 251 288 304 308 330 299 295 293 319 310 244 232 195 228 277